Weather History for Ontario, OR

Change the Weather History Date:

Saturday, June 22, 2013

  Actual Average Record
Temperature  
Mean Temperature 61 °F 70 °F  
Max Temperature 76 °F 86 °F 106 °F (1970)
Min Temperature 45 °F 54 °F 39 °F (1956)
Degree Days  
Heating Degree Days 4 1  
Month to date heating degree days 36 45  
Since 1 June heating degree days 36 45  
Since 1 July heating degree days 5687 5995  
Cooling Degree Days 0 6  
Month to date cooling degree days 116 84  
Year to date cooling degree days 163 120  
Since 1 June cooling degree days 116 84  
Growing Degree Days 10 (Base 50)    
Moisture  
Dew Point 42 °F    
Average Humidity 54    
Maximum Humidity 82    
Minimum Humidity 25    
Precipitation  
Precipitation 0.00 in 0.02 in 0.09 in (1980)
Month to date precipitation 0.27 0.57  
Year to date precipitation 2.21 5.64  
Sea Level Pressure  
Sea Level Pressure 30.04 in    
Wind  
Wind Speed 5 mph (West)    
Max Wind Speed 12 mph    
Max Gust Speed 15 mph    
Visibility 10 miles    
Events      
T = Trace of Precipitation, MM = Missing Value Source: NWS Daily Summary

Daily Weather History Graph

Daily Weather History Graph

Search for Another Location

Airport:

Trip Planner

Search our weather history database for the weather conditions in past years. The results will help you decide how hot, cold, wet, or windy it might be!

Date:

Astronomy

Jun. 22, 2013 Rise Set
Actual Time 6:05 AM MDT 9:34 PM MDT
Civil Twilight 5:29 AM MDT 10:11 PM MDT
Nautical Twilight 4:41 AM MDT 10:59 PM MDT
Astronomical Twilight 3:39 AM MDT 12:00 AM MDT
Moon 8:51 PM MDT (6/22) 5:25 AM MDT (6/22)
Length of Visible Light 16h 42m
Length of Day
15h 29m
Waxing Gibbous, 99% of the Moon is Illuminated
Jun 22
Waxing Gibbous
Jun 23
Full
Jun 29
Last Quarter
Jul 8
New
Jul 15
First Quarter

Hourly Weather History & Observations

Time (MDT) Temp. Dew Point Humidity Pressure Visibility Wind Dir Wind Speed Gust Speed Precip Events Conditions
12:53 AM 53.1 °F 42.1 °F 66% 30.08 in 10.0 mi Calm Calm - N/A   Scattered Clouds
1:53 AM 53.1 °F 42.1 °F 66% 30.07 in 10.0 mi WNW 5.8 mph - N/A   Clear
2:53 AM 51.1 °F 42.1 °F 71% 30.08 in 10.0 mi West 4.6 mph - N/A   Clear
3:53 AM 52.0 °F 41.0 °F 66% 30.08 in 10.0 mi NNW 6.9 mph - N/A   Partly Cloudy
4:53 AM 48.0 °F 41.0 °F 77% 30.09 in 10.0 mi SW 5.8 mph - N/A   Clear
5:53 AM 46.9 °F 41.0 °F 80% 30.11 in 10.0 mi WSW 8.1 mph - N/A   Clear
6:53 AM 46.9 °F 41.0 °F 80% 30.12 in 10.0 mi WSW 6.9 mph - N/A   Clear
7:53 AM 52.0 °F 42.1 °F 69% 30.12 in 10.0 mi SW 6.9 mph - N/A   Clear
8:53 AM 55.9 °F 41.0 °F 57% 30.12 in 10.0 mi WSW 10.4 mph - N/A   Clear
9:53 AM 61.0 °F 42.1 °F 50% 30.11 in 10.0 mi West 10.4 mph - N/A   Clear
10:53 AM 63.0 °F 41.0 °F 45% 30.11 in 10.0 mi Variable 3.5 mph - N/A   Clear
11:53 AM 66.9 °F 41.0 °F 39% 30.09 in 10.0 mi WSW 6.9 mph - N/A   Clear
12:53 PM 68.0 °F 42.1 °F 39% 30.07 in 10.0 mi SSW 8.1 mph - N/A   Clear
1:53 PM 70.0 °F 41.0 °F 35% 30.06 in 10.0 mi Calm Calm - N/A   Clear
2:53 PM 72.0 °F 37.9 °F 29% 30.03 in 10.0 mi Calm Calm - N/A   Clear
3:53 PM 73.9 °F 44.1 °F 34% 30.01 in 10.0 mi Variable 4.6 mph - N/A   Clear
4:53 PM 73.9 °F 42.1 °F 32% 29.99 in 10.0 mi Variable 5.8 mph - N/A   Clear
5:53 PM 75.0 °F 37.9 °F 26% 29.96 in 10.0 mi NE 8.1 mph - N/A   Clear
6:53 PM 75.9 °F 37.0 °F 24% 29.94 in 10.0 mi NE 4.6 mph - N/A   Clear
7:53 PM 73.0 °F 37.9 °F 28% 29.93 in 10.0 mi NE 3.5 mph - N/A   Clear
8:53 PM 71.1 °F 39.0 °F 31% 29.92 in 10.0 mi Calm Calm - N/A   Clear
9:53 PM 66.9 °F 46.0 °F 47% 29.92 in 10.0 mi Calm Calm - N/A   Clear
10:53 PM 60.1 °F 48.9 °F 67% 29.93 in 10.0 mi Calm Calm - N/A   Clear
11:53 PM 59.0 °F 45.0 °F 60% 29.92 in 10.0 mi Calm Calm - N/A   Clear